Regional Weather Roundup
Issued by NWS

Home | Current Version | Previous Version | Graphics & Text | Print | Product List | Glossary On
Versions: 1 2 3 4 5 6 7 8 9 10 11 12 13 14 15 16 17 18 19 20 21 22 23 24 25 26 27 28 29 30 31 32 33 34 35 36 37 38 39 40 41 42 43 44 45 46 47 48 49 50
000
ASUS43 KFSD 261402
RWRSD

WEATHER ROUNDUP FOR SOUTH DAKOTA
NATIONAL WEATHER SERVICE SIOUX FALLS SD
800 AM CST THU FEB 26 2015

NOTE: "FAIR" INDICATES FEW OR NO CLOUDS BELOW 12,000 FEET WITH NO
SIGNIFICANT WEATHER AND/OR OBSTRUCTIONS TO VISIBILITY.


SDZ001>005-009-010-012>017-261500-
NORTHWEST AND NORTH CENTRAL SOUTH DAKOTA

CITY           SKY/WX    TMP DP  RH WIND       PRES   REMARKS
BUFFALO          N/A     -9 -14  78 NW10      30.32S WCI -27
FAITH            N/A     -8 -14  74 NW7       30.44R WCI -23
MOBRIDGE       CLEAR    -11 -17  75 N5        30.48R WCI -23
$$

SDZ012>016-024>037-041>051-057-063-072>074-261500-
SOUTHWEST AND SOUTH CENTRAL SOUTH DAKOTA

CITY           SKY/WX    TMP DP  RH WIND       PRES   REMARKS
RAPID CTY ARPT CLOUDY    -2  -6  83 N9        30.39S WCI -18
PIERRE         CLEAR     -6 -11  79 N13       30.51R WCI -25
CUSTER         CLEAR     -4  -9  79 NW3       30.12S
PHILIP         MOCLDY    -3  -9  75 N8        30.49S WCI -18
PINE RIDGE     CLOUDY     4  -1  80 N8        30.36R WCI  -9
WINNER         CLOUDY     0  -8  69 NW9       30.48R HAZE    WCI -15
$$

SDZ004>011-016>023-039-040-261500-
NORTHEAST SOUTH DAKOTA

CITY           SKY/WX    TMP DP  RH WIND       PRES   REMARKS
ABERDEEN       CLEAR     -9 -16  71 NW10      30.53R WCI -27
WATERTOWN      CLEAR    -11 -17  75 NW5       30.42R WCI -23
SISSETON         N/A     -9 -14  78 N12       30.51R WCI -28
$$

SDZ017-020-022-023-036>040-048>070-261500-
SOUTHEAST SOUTH DAKOTA

CITY           SKY/WX    TMP DP  RH WIND       PRES   REMARKS
SIOUX FALLS    CLEAR     -7 -13  75 N12       30.46R WCI -26
HURON          PTCLDY   -16 -20  82 NW8       30.54R WCI -34
MITCHELL       CLEAR     -6 -11  79 NW10      30.54R WCI -24
YANKTON        CLEAR     -4  -9  77 NW10      30.53R WCI -21
$$

ABBREVIATIONS USED IN REMARKS
   TC - TEMPERATURE IN CELSIUS
  WCI - WIND CHILL INDEX
   HX - HEAT INDEX
  VSB - VISIBILITY



USA.gov is the U.S. government's official web portal to all federal, state and local government web resources and services.